CAPE
0 0 0 0 0 0 0 0 0 0 0 0 0 0 0 0 0 0 0 0 76 274 744 957 1147 1114 1214 1101 852 646 609 568 731 870 784 825 867 704 532 359 393 436 410 212 11 4 2 1 1
0 0 0 0 0 0 0 0 0 0 0 0 0 0 0 0 0 0 0 13 198 429 758 1009 976 1039 1063 944 792 696 535 541 568 710 736 753 574 419 566 511 311 145 9 3 2 1 0 0 0
0 0 0 0 0 0 0 0 0 0 0 0 0 0 0 0 0 0 0 125 341 469 701 923 1055 1044 872 632 475 379 363 412 496 465 552 557 562 476 289 49 3 0 0 2 0 0 0 0 0
0 0 0 0 0 0 0 0 0 0 0 0 0 0 0 0 0 0 0 243 441 548 639 832 908 762 547 381 262 206 242 353 400 321 286 251 88 3 0 1 1 1 0 0 0 0 0 0 0
0 0 0 0 0 0 0 0 0 0 0 0 0 0 0 0 0 0 131 297 393 471 578 618 537 406 300 259 163 162 181 141 134 266 287 67 4 2 1 1 0 0 0 0 0 0 0 0 0
0 0 0 0 0 0 0 0 0 0 0 0 0 0 0 0 0 0 193 280 282 410 452 443 370 308 228 180 102 80 64 22 49 26 4 2 2 3 2 0 0 0 0 0 0 0 0 0 0
0 0 0 0 0 0 0 0 0 0 0 0 0 0 0 0 0 42 136 229 251 287 336 323 301 228 171 46 2 3 2 2 2 2 1 1 0 0 0 0 0 0 0 0 0 0 0 0 0
0 0 0 0 0 0 0 0 0 0 0 0 0 0 0 0 0 5 54 79 192 228 265 266 237 157 69 1 0 3 1 1 3 0 0 0 0 0 0 0 0 0 0 0 0 0 0 0 0
0 0 0 0 0 0 0 0 0 0 0 0 0 0 0 0 0 0 35 44 69 152 184 135 134 65 1 0 1 0 0 0 2 0 0 0 0 0 0 0 0 0 0 0 0 0 0 0 0
0 0 0 0 0 0 0 0 0 0 0 0 0 0 0 0 0 0 12 58 78 77 44 49 16 10 0 0 0 0 0 0 0 0 0 0 0 0 0 0 0 0 0 0 0 0 0 0 0
0 0 0 0 0 0 0 0 0 0 0 0 0 0 0 0 0 4 21 22 49 19 1 0 0 0 0 0 0 0 0 0 0 0 0 0 0 0 0 0 0 0 0 0 0 0 0 0 0
0 0 0 0 0 0 0 0 0 0 0 0 0 0 0 0 0 0 0 0 0 0 0 0 0 0 0 0 0 0 0 0 0 0 0 0 0 0 0 0 0 0 0 0 0 0 0 0 0
0 0 0 0 0 0 0 0 0 0 0 0 0 0 0 0 0 0 1 0 1 0 0 0 0 0 0 0 0 0 0 0 0 0 0 0 0 0 0 0 0 0 0 0 0 0 0 0 0
0 0 0 0 0 0 0 0 0 0 0 0 0 0 0 0 0 0 0 0 0 0 0 0 0 0 0 0 0 0 0 0 0 0 0 0 0 0 0 0 0 0 0 0 0 0 0 0 0
12 6 0 0 0 0 0 0 0 0 0 0 0 0 0 0 0 0 0 0 1 1 0 0 0 0 0 0 0 0 0 0 0 0 0 0 0 0 0 0 0 0 0 0 0 0 0 0 0
6 2 1 0 0 0 0 0 0 0 0 0 0 0 0 0 0 0 0 0 0 1 0 2 1 0 0 0 0 0 0 0 0 0 0 0 0 0 0 0 0 0 0 0 0 0 0 0 0
0 1 0 0 0 0 0 0 0 0 0 0 0 0 0 0 0 0 0 0 0 0 1 0 1 1 0 0 0 0 0 0 0 0 0 0 0 0 0 0 0 0 0 0 0 0 0 0 0
0 0 0 0 0 0 0 0 0 0 0 0 0 0 0 0 0 0 0 0 0 0 0 1 1 1 2 1 0 0 0 0 0 0 0 0 0 0 0 0 0 0 0 0 0 0 0 0 0
7 3 0 0 0 0 0 0 0 0 0 0 0 0 0 0 0 0 0 0 0 0 0 0 0 1 3 2 0 1 0 0 0 0 0 0 0 0 0 0 0 0 0 0 0 0 0 0 0
0 0 1 0 0 3 0 0 0 0 0 0 0 0 0 0 0 0 0 0 0 0 0 0 0 1 1 3 2 0 1 1 0 0 0 0 0 0 0 0 0 0 0 0 0 0 0 0 0
0 0 0 0 6 0 0 0 0 0 0 0 0 0 0 0 0 0 0 0 0 0 0 0 0 0 1 2 1 0 0 0 0 0 0 0 0 0 0 0 0 0 0 0 0 0 0 0 0
0 0 0 0 0 0 0 0 0 0 0 0 0 0 0 0 0 0 0 0 0 0 0 0 0 0 2 1 1 0 0 0 0 0 0 0 0 0 0 0 0 0 0 0 0 0 0 0 0
0 0 0 0 0 0 0 2 0 0 0 0 0 0 0 0 0 0 0 0 0 0 0 0 0 0 0 1 0 0 0 0 0 0 0 0 0 0 0 0 0 0 0 0 0 0 0 0 0
0 0 0 0 0 0 0 0 0 0 0 0 0 0 0 0 0 0 0 0 0 0 0 0 0 0 0 0 0 0 0 0 0 0 0 0 0 0 0 0 0 0 0 0 0 0 0 0 0
0 0 0 0 0 0 0 0 0 0 0 0 0 0 0 0 0 0 0 0 0 0 0 0 0 0 0 0 0 0 0 0 0 0 0 0 0 0 0 0 0 0 0 0 0 0 0 0 0
0 0 0 0 0 0 0 0 0 0 0 0 0 0 0 0 0 0 0 0 0 0 0 0 0 0 0 0 0 0 0 0 0 0 0 0 0 0 0 0 0 0 0 0 0 0 0 0 0
0 0 0 0 0 14 0 0 0 0 0 0 0 0 0 0 0 0 0 0 0 0 0 0 0 0 0 0 0 0 0 0 0 0 0 0 0 0 0 0 0 0 0 0 0 0 0 0 0
0 0 2 2 2 0 0 0 0 0 0 0 0 0 0 0 0 0 0 0 0 0 0 0 0 0 0 0 0 0 0 0 0 0 0 0 0 0 0 0 0 0 0 0 0 0 0 0 0
0 0 0 0 0 0 0 0 0 0 0 0 0 0 0 0 0 0 0 0 0 0 0 0 0 0 0 0 0 0 0 0 0 0 0 0 0 0 0 0 0 0 0 0 0 0 0 0 0
0 0 0 0 0 2 0 0 0 0 0 3 0 0 0 0 0 0 0 0 0 0 0 0 0 0 0 0 0 0 0 0 0 0 0 0 0 0 0 0 0 0 0 0 0 0 0 0 0
CIN
-0 -0 -0 -0 -0 -0 -0 -0 -0 -0 -0 -0 -0 -0 -0 -0 -0 -0 -0 -0 -377 -272 -99 -49 -3 -0 -1 -10 -49 -67 -60 -52 -21 -1 -4 -1 -0 -1 -4 -6 -1 -0 -0 -14 -19 -0 -0 -0 -0
-0 -0 -0 -0 -0 -0 -0 -0 -0 -0 -0 -0 -0 -0 -0 -0 -0 -0 -0 -430 -292 -184 -67 -40 -19 -1 -1 -7 -26 -57 -59 -51 -15 -1 -3 -3 -2 -2 -0 -0 -7 -21 -29 -0 -0 -0 -0 -0 -0
-0 -0 -0 -0 -0 -0 -0 -0 -0 -0 -0 -0 -0 -0 -0 -0 -0 -0 -0 -364 -205 -194 -90 -31 -9 -2 -7 -13 -34 -52 -58 -49 -10 -19 -7 -2 -1 -0 -6 -65 -8 -1 -0 -0 -0 -0 -0 -0 -0
-0 -0 -0 -0 -0 -0 -0 -0 -0 -0 -0 -0 -0 -0 -0 -0 -0 -0 -0 -289 -179 -126 -83 -38 -24 -13 -34 -56 -67 -66 -49 -36 -14 -33 -15 -14 -40 -12 -8 -4 -0 -0 -0 -0 -0 -0 -0 -0 -0
-0 -0 -0 -0 -0 -0 -0 -0 -0 -0 -0 -0 -0 -0 -0 -0 -0 -0 -321 -240 -183 -151 -77 -29 -55 -61 -76 -68 -85 -67 -58 -60 -48 -25 -11 -32 -2 -2 -0 -0 -0 -0 -0 -0 -0 -0 -0 -0 -0
-0 -0 -0 -0 -0 -0 -0 -0 -0 -0 -0 -0 -0 -0 -0 -0 -0 -0 -245 -206 -192 -137 -90 -76 -72 -86 -75 -60 -75 -80 -78 -106 -72 -42 -1 -0 -0 -0 -0 -0 -0 -0 -0 -0 -0 -0 -0 -0 -0
-0 -0 -0 -0 -0 -0 -0 -0 -0 -0 -0 -0 -0 -0 -0 -0 -0 -317 -235 -209 -180 -135 -101 -90 -77 -80 -90 -104 -2 -3 -2 -0 -0 -0 -0 -0 -0 -0 -0 -0 -0 -0 -0 -0 -0 -0 -0 -0 -0
-0 -0 -0 -0 -0 -0 -0 -0 -0 -0 -0 -0 -0 -0 -0 -0 -0 -143 -275 -208 -153 -126 -110 -98 -89 -93 -100 -29 -0 -2 -2 -1 -0 -0 -0 -0 -0 -0 -0 -0 -0 -0 -0 -0 -0 -0 -0 -0 -0
-0 -0 -0 -0 -0 -0 -0 -0 -0 -0 -0 -0 -0 -0 -0 -0 -0 -0 -267 -211 -175 -128 -124 -125 -112 -139 -19 -1 -18 -0 -3 -1 -2 -0 -0 -0 -0 -0 -0 -0 -0 -0 -0 -0 -0 -0 -0 -0 -0
-0 -0 -0 -0 -0 -0 -0 -0 -0 -0 -0 -0 -0 -0 -0 -0 -0 -0 -252 -254 -201 -194 -201 -188 -68 -105 -18 -0 -15 -0 -0 -0 -0 -0 -0 -0 -0 -0 -0 -0 -0 -0 -0 -0 -0 -0 -0 -0 -0
-0 -0 -0 -0 -0 -0 -0 -0 -0 -0 -0 -0 -0 -0 -0 -0 -0 -125 -332 -329 -311 -258 -10 -33 -1 -0 -1 -0 -0 -0 -0 -0 -0 -0 -0 -0 -0 -0 -0 -0 -0 -0 -0 -0 -0 -0 -0 -0 -0
-0 -0 -0 -0 -0 -0 -0 -0 -0 -0 -0 -0 -0 -0 -0 -0 -0 -0 -0 -0 -0 -0 -0 -0 -0 -0 -0 -0 -0 -0 -0 -0 -0 -0 -0 -0 -0 -0 -0 -0 -0 -0 -0 -0 -0 -0 -0 -0 -0
-0 -0 -0 -0 -0 -0 -0 -0 -0 -0 -0 -0 -0 -0 -0 -0 -0 -0 -0 -0 -0 -0 -0 -0 -0 -0 -0 -0 -0 -0 -0 -0 -0 -0 -0 -0 -0 -0 -0 -0 -0 -0 -0 -0 -0 -0 -0 -0 -0
-2 -0 -0 -0 -0 -0 -0 -0 -0 -0 -0 -0 -0 -0 -0 -0 -0 -0 -0 -0 -0 -0 -0 -0 -0 -0 -0 -0 -0 -0 -0 -0 -0 -0 -0 -0 -0 -0 -0 -0 -0 -0 -0 -0 -0 -0 -0 -0 -0
-1 -0 -0 -0 -0 -0 -0 -0 -0 -0 -0 -0 -0 -0 -0 -0 -0 -0 -0 -0 -0 -0 -0 -0 -0 -0 -0 -0 -0 -0 -0 -0 -0 -0 -0 -0 -0 -0 -0 -0 -0 -0 -0 -0 -0 -0 -0 -0 -0
-4 -6 -0 -0 -0 -0 -0 -0 -0 -0 -0 -0 -0 -0 -0 -0 -0 -0 -0 -0 -0 -0 -0 -0 -0 -0 -0 -0 -0 -0 -0 -0 -0 -0 -0 -0 -0 -0 -0 -0 -0 -0 -0 -0 -0 -0 -0 -0 -0
-0 -1 -0 -0 -0 -0 -0 -0 -0 -0 -0 -0 -0 -0 -0 -0 -0 -0 -0 -0 -0 -0 -0 -0 -0 -0 -0 -0 -0 -0 -0 -0 -0 -0 -0 -0 -0 -0 -0 -0 -0 -0 -0 -0 -0 -0 -0 -0 -0
-0 -0 -0 -0 -0 -0 -0 -0 -0 -0 -0 -0 -0 -0 -0 -0 -0 -0 -0 -0 -0 -0 -0 -0 -0 -0 -0 -0 -0 -0 -0 -0 -0 -0 -0 -0 -0 -0 -0 -0 -0 -0 -0 -0 -0 -0 -0 -0 -0
-4 -4 -1 -0 -0 -0 -0 -0 -0 -0 -0 -0 -0 -0 -0 -0 -0 -0 -0 -0 -0 -0 -0 -0 -0 -0 -0 -0 -0 -0 -0 -0 -0 -0 -0 -0 -0 -0 -0 -0 -0 -0 -0 -0 -0 -0 -0 -0 -0
-0 -0 -4 -0 -0 -2 -0 -0 -0 -0 -0 -0 -0 -0 -0 -0 -0 -0 -0 -0 -0 -0 -0 -0 -0 -0 -0 -0 -0 -0 -0 -0 -0 -0 -0 -0 -0 -0 -0 -0 -0 -0 -0 -0 -0 -0 -0 -0 -0
-0 -0 -0 -0 -6 -0 -1 -0 -0 -0 -0 -0 -0 -0 -0 -0 -0 -0 -0 -0 -0 -0 -0 -0 -0 -0 -0 -0 -0 -0 -0 -0 -0 -0 -0 -0 -0 -0 -0 -0 -0 -0 -0 -0 -0 -0 -0 -0 -0
-0 -0 -0 -0 -0 -0 -0 -0 -0 -0 -0 -0 -0 -0 -0 -0 -0 -0 -0 -0 -0 -0 -0 -0 -0 -0 -0 -0 -0 -0 -0 -0 -0 -0 -0 -0 -0 -0 -0 -0 -0 -0 -0 -0 -0 -0 -0 -0 -0
-0 -0 -0 -0 -0 -0 -0 -15 -0 -0 -0 -0 -0 -0 -0 -0 -0 -0 -0 -0 -0 -0 -0 -0 -0 -0 -0 -0 -0 -0 -0 -0 -0 -0 -0 -0 -0 -0 -0 -0 -0 -0 -0 -0 -0 -0 -0 -0 -0
-0 -0 -0 -1 -0 -0 -0 -0 -0 -0 -0 -0 -0 -0 -0 -0 -0 -0 -0 -0 -0 -0 -0 -0 -0 -0 -0 -0 -0 -0 -0 -0 -0 -0 -0 -0 -0 -0 -0 -0 -0 -0 -0 -0 -0 -0 -0 -0 -0
-0 -0 -0 -0 -0 -0 -0 -1 -0 -0 -0 -0 -0 -0 -0 -0 -0 -0 -0 -0 -0 -0 -0 -0 -0 -0 -0 -0 -0 -0 -0 -0 -0 -0 -0 -0 -0 -0 -0 -0 -0 -0 -0 -0 -0 -0 -0 -0 -0
-0 -0 -0 -0 -0 -0 -0 -0 -0 -0 -0 -0 -0 -0 -0 -0 -0 -0 -0 -0 -0 -0 -0 -0 -0 -0 -0 -0 -0 -0 -0 -0 -0 -0 -0 -0 -0 -0 -0 -0 -0 -0 -0 -0 -0 -0 -0 -0 -0
-0 -0 -0 -0 -0 -41 -0 -0 -0 -0 -0 -0 -0 -0 -0 -0 -0 -0 -0 -0 -0 -0 -0 -0 -0 -0 -0 -0 -0 -0 -0 -0 -0 -0 -0 -0 -0 -0 -0 -0 -0 -0 -0 -0 -0 -0 -0 -0 -0
-0 -0 -6 -20 -14 -5 -0 -0 -0 -0 -0 -0 -0 -0 -0 -0 -0 -0 -0 -0 -0 -0 -0 -0 -0 -0 -0 -0 -0 -0 -0 -0 -0 -0 -0 -0 -0 -0 -0 -0 -0 -0 -0 -0 -0 -0 -0 -0 -0
-0 -0 -0 -0 -0 -0 -0 -0 -0 -0 -0 -0 -0 -0 -0 -0 -0 -0 -0 -0 -0 -0 -0 -0 -0 -0 -0 -0 -0 -0 -0 -0 -0 -0 -0 -0 -0 -0 -0 -0 -0 -0 -0 -0 -0 -0 -0 -0 -0
-0 -0 -0 -0 -0 -22 -0 -0 -0 -0 -0 -0 -0 -0 -0 -0 -0 -0 -0 -0 -0 -0 -0 -0 -0 -0 -0 -0 -0 -0 -0 -0 -0 -0 -0 -0 -0 -0 -0 -0 -0 -0 -0 -0 -0 -0 -0 -0 -0
Wind_Speed
14 15 13 14 20 24 26 22 18 19 18 15 13 12 14 14 13 13 19 8 7 5 5 6 7 8 7 6 5 3 2 0 1 1 0 5 3 2 3 4 5 7 8 8 9 10 10 11 13
13 14 15 20 26 29 27 19 18 16 15 15 16 17 18 17 20 21 12 13 1 5 4 6 9 7 6 5 4 3 2 2 4 4 2 1 2 3 4 5 5 7 7 8 9 10 10 11 12
13 15 20 26 30 30 29 20 19 20 19 21 20 18 20 19 19 17 15 5 2 5 5 6 6 7 7 6 3 1 4 4 4 5 4 1 2 4 4 5 6 6 7 8 8 9 10 11 12
16 18 24 34 35 31 23 20 18 20 19 18 20 24 23 20 17 14 10 3 6 6 7 7 7 8 6 4 3 2 2 4 3 4 6 4 3 3 3 4 5 6 7 8 8 9 10 12 13
18 23 35 40 41 33 25 24 22 22 20 19 16 21 22 21 15 11 5 6 7 7 8 7 7 7 6 4 3 3 3 3 2 4 4 2 1 1 2 4 5 6 6 7 9 10 11 12 13
26 27 40 47 44 35 32 26 25 27 23 18 20 23 25 20 15 8 4 7 11 8 8 8 8 7 7 6 5 4 4 4 3 3 3 2 1 2 3 4 5 5 7 8 9 10 12 13 14
34 35 47 47 46 42 33 24 28 30 29 28 21 25 25 25 17 9 7 8 10 10 9 10 11 9 7 6 7 6 5 5 4 3 3 2 2 1 2 3 4 5 7 8 9 11 11 12 13
34 38 49 49 47 49 34 29 29 29 36 28 23 30 31 25 14 11 10 11 11 11 11 13 14 13 12 8 8 10 7 7 6 5 4 3 3 3 3 4 5 6 7 8 9 10 11 12 14
30 46 57 52 46 40 30 32 30 28 31 27 24 29 27 21 15 14 14 14 15 14 13 14 15 14 14 12 10 10 9 8 8 8 7 7 7 6 5 6 5 6 7 8 10 11 12 13 14
40 50 56 46 45 43 40 38 33 30 30 32 30 26 25 19 19 19 18 17 18 17 15 14 15 15 15 16 11 12 12 12 11 10 9 10 9 8 7 7 7 7 8 10 11 13 14 15 16
42 57 50 46 44 42 46 41 33 35 35 31 30 28 24 23 25 25 23 21 18 21 18 17 16 16 17 17 15 16 16 15 14 13 12 12 12 11 10 9 10 10 11 12 13 15 15 16 17
53 52 51 53 45 44 49 44 47 42 40 29 26 23 21 23 24 27 26 24 23 22 22 19 18 17 17 17 17 17 17 17 17 16 14 13 13 12 12 12 12 13 13 13 14 15 15 16 17
52 55 50 48 48 52 49 54 49 51 46 40 33 28 26 24 25 29 30 27 25 26 24 21 19 19 19 18 19 19 20 20 18 17 16 15 14 14 13 13 13 13 13 14 14 15 16 17 17
45 46 52 53 56 53 52 56 50 59 45 42 40 38 32 28 28 28 31 30 27 27 26 25 22 21 20 21 21 22 22 22 21 19 18 17 16 15 15 14 14 14 14 14 15 15 16 17 18
53 59 56 56 50 48 49 67 67 52 43 47 47 43 38 34 30 30 29 32 31 30 28 29 27 23 23 22 21 22 22 22 23 22 19 18 18 17 15 14 14 14 14 13 15 16 16 17 18
48 48 61 55 53 52 45 78 56 49 47 51 50 51 49 44 37 34 33 31 30 29 28 27 28 27 25 24 22 23 23 23 24 23 22 21 19 18 17 16 15 14 14 15 16 17 18 19 20
56 68 64 60 49 44 50 74 56 46 43 49 50 51 50 48 42 38 35 33 31 28 28 28 27 29 28 26 25 24 25 25 25 24 23 22 21 19 19 18 17 15 16 16 17 18 19 20 21
64 64 65 67 52 49 60 66 56 46 44 49 48 49 49 50 49 42 38 37 34 31 30 29 29 29 29 28 28 27 27 27 26 24 24 22 22 21 21 20 18 17 17 17 18 19 20 21 22
59 58 65 59 53 56 62 65 60 51 52 52 50 48 49 48 46 42 42 42 40 36 34 32 31 30 29 30 31 32 31 29 28 27 25 24 23 22 21 20 19 18 18 18 17 19 20 21 22
57 59 63 60 52 55 61 69 60 52 55 54 54 55 53 52 49 42 41 40 41 40 38 36 34 32 31 31 31 32 31 33 31 29 28 27 24 22 22 22 21 20 20 19 19 20 21 22 22
57 61 57 59 50 56 57 70 63 51 49 50 50 51 50 51 51 49 44 41 40 40 41 40 38 36 34 32 31 31 29 31 33 32 30 27 25 24 24 23 23 21 21 21 20 20 21 23 22
56 54 56 55 54 71 49 79 60 57 59 54 55 51 51 49 47 45 45 44 42 43 40 39 38 38 37 34 35 36 37 36 36 33 31 30 28 26 25 24 24 23 22 22 21 21 22 22 23
47 46 52 55 54 50 52 59 60 54 59 56 55 54 55 56 55 55 49 47 46 41 39 39 38 38 36 36 37 38 40 38 33 32 31 30 29 27 25 24 24 24 23 23 22 21 22 22 23
38 39 41 46 53 69 58 55 62 52 51 50 48 51 51 51 51 50 49 47 44 40 39 37 37 37 35 35 36 38 39 38 35 33 32 32 30 29 28 26 25 24 24 23 22 22 22 22 23
34 31 41 49 57 67 57 54 51 38 45 49 52 52 49 44 44 46 46 45 43 39 37 39 38 39 37 37 37 38 38 38 36 34 32 31 31 31 29 27 26 25 24 23 22 22 22 23 23
28 30 36 45 47 53 53 62 69 54 49 45 44 44 42 38 37 40 42 42 41 40 38 37 40 40 37 38 38 37 38 38 37 34 33 31 30 30 28 27 26 25 24 23 23 23 23 23 24
24 28 29 36 34 33 37 38 43 40 40 39 43 37 35 34 32 31 33 38 39 38 38 37 37 38 39 36 37 35 35 36 37 34 33 32 29 28 26 26 26 25 24 23 23 24 24 23 23
12 10 21 24 30 37 24 25 27 29 35 32 32 32 33 35 36 36 36 34 34 38 39 37 36 36 36 37 36 37 35 34 33 33 32 31 29 27 26 26 26 25 24 23 23 24 24 23 23
9 10 18 24 26 26 32 23 23 25 23 23 25 26 28 29 30 29 30 30 32 33 34 35 35 35 35 35 35 36 36 34 31 32 31 30 28 27 26 26 26 25 25 24 24 24 24 24 24
7 22 13 20 28 25 25 27 19 19 19 21 21 20 22 22 24 26 27 28 28 29 29 30 31 32 32 32 32 32 33 33 35 34 31 30 29 27 26 25 25 25 25 24 24 25 25 24 24
Wind_Direction
303 308 309 296 284 288 286 291 299 303 301 302 307 297 279 280 293 303 296 314 290 163 162 159 168 166 155 149 148 148 215 65 285 289 39 261 285 344 20 26 32 35 26 12 8 6 7 8 11
300 300 294 285 277 276 286 289 284 283 300 317 302 290 286 287 280 284 302 292 332 185 198 158 147 158 163 174 146 158 154 225 248 265 288 319 18 47 53 46 22 10 3 11 19 19 10 5 5
296 292 279 275 272 269 284 293 289 289 283 288 293 295 286 288 281 281 291 287 206 177 209 202 161 154 143 141 143 202 242 229 240 254 260 332 50 58 36 18 11 13 19 18 14 7 358 353 352
285 282 281 269 267 273 273 296 299 299 292 285 280 284 282 281 288 285 284 234 227 224 217 166 167 160 157 171 210 223 202 232 236 242 251 267 285 314 346 3 17 31 25 16 8 358 355 352 352
282 278 267 268 267 274 279 281 288 290 291 293 278 273 280 279 292 293 260 232 217 217 219 208 187 200 218 206 195 152 179 208 214 236 240 252 285 353 23 40 34 22 14 5 2 360 355 350 345
269 273 267 263 267 272 275 276 278 278 283 289 284 275 272 281 282 285 243 229 234 216 215 224 212 210 222 229 223 193 182 183 197 212 225 212 168 92 63 46 27 8 356 353 349 346 344 342 340
265 264 264 267 268 269 272 276 268 271 274 273 283 276 273 270 273 268 251 240 235 230 222 230 234 228 222 218 234 222 203 203 198 189 186 201 167 101 55 12 1 356 353 349 343 342 346 350 349
266 267 264 264 265 268 274 273 276 270 272 276 273 271 270 271 261 260 254 246 242 233 226 234 239 239 243 233 227 237 224 228 232 228 230 229 243 270 304 334 342 348 347 343 341 340 345 347 345
268 261 260 260 261 264 275 272 276 278 271 272 269 269 274 272 256 251 250 249 246 238 231 233 238 239 242 241 236 234 230 234 238 244 245 249 258 271 291 308 332 339 338 336 333 333 334 339 340
257 260 261 265 263 267 268 269 273 274 270 267 268 271 272 262 250 246 243 241 242 238 232 226 229 235 238 245 239 241 241 244 245 244 247 256 263 272 283 300 315 323 327 324 325 325 326 327 330
262 258 262 268 266 267 266 267 269 266 265 267 270 267 266 262 252 249 248 244 239 245 239 235 231 232 237 242 244 244 245 246 248 248 250 255 262 270 281 292 299 304 309 311 314 317 319 322 324
262 263 263 264 268 267 264 267 262 262 263 271 271 274 268 260 254 250 247 247 246 244 244 239 234 232 237 240 241 243 244 246 249 251 252 255 261 268 277 285 292 297 301 306 311 315 318 320 323
262 262 265 267 266 264 266 261 263 260 261 264 268 269 266 265 259 255 253 252 250 249 247 243 237 235 237 238 244 245 246 247 248 251 254 257 261 266 274 282 289 295 302 305 308 312 315 318 321
266 268 265 264 263 263 263 262 261 257 261 262 261 262 264 263 261 258 255 253 250 250 248 248 242 240 238 242 245 247 247 247 249 250 253 256 260 265 271 279 286 292 298 304 307 311 314 316 318
265 264 265 261 262 265 263 259 255 260 261 258 258 259 262 262 262 258 256 255 254 253 251 247 245 242 240 244 246 249 246 246 248 251 252 255 259 263 269 276 282 289 296 301 306 309 312 313 315
265 263 259 260 258 259 260 256 260 260 258 258 257 258 259 261 260 260 258 256 255 252 251 250 245 244 243 245 246 249 246 245 248 251 254 256 259 262 267 273 279 285 291 296 300 302 305 308 310
259 257 257 260 259 260 251 257 260 262 261 258 257 257 258 260 259 258 258 256 254 251 251 250 246 244 245 248 249 248 245 245 248 251 254 256 258 261 265 270 275 280 285 290 294 297 299 301 305
257 256 257 256 257 257 257 258 260 262 260 259 259 258 257 257 257 258 257 256 255 253 251 251 249 246 245 249 251 251 247 248 249 249 251 253 258 261 264 268 271 275 280 285 290 292 297 301 303
263 261 259 259 258 258 257 258 258 260 260 259 258 258 258 258 260 260 259 256 254 253 251 249 248 246 243 246 247 250 247 248 249 251 251 253 256 258 260 264 267 271 276 282 288 292 294 299 305
260 261 259 260 259 257 257 257 259 260 258 258 258 258 258 259 260 261 260 257 253 252 251 250 249 247 244 246 247 252 249 252 252 253 254 254 255 255 257 261 264 267 273 278 283 288 292 297 301
258 256 259 261 263 258 259 257 256 259 259 259 259 259 259 258 259 259 259 258 255 253 252 251 250 248 247 247 247 252 252 256 252 252 253 254 253 255 257 260 262 264 269 274 279 284 288 292 298
263 258 256 260 262 255 254 256 257 256 256 258 258 258 258 259 260 260 259 258 257 257 257 255 253 251 249 246 246 244 248 250 251 252 253 253 252 253 255 257 260 262 267 271 276 281 286 291 293
268 266 257 255 257 265 253 256 256 257 255 256 257 260 260 260 260 259 261 261 261 261 258 256 254 252 249 246 246 246 248 251 253 252 251 252 252 252 252 255 258 261 265 270 272 278 284 289 292
274 269 261 256 255 254 256 256 256 253 253 258 262 263 264 263 262 262 262 263 262 260 258 255 252 251 249 246 246 246 246 248 248 249 250 251 252 253 253 254 256 259 263 266 270 277 282 286 290
268 265 257 252 248 251 253 259 258 264 259 263 266 266 266 267 266 265 263 261 261 261 259 256 253 252 249 248 248 247 245 246 244 245 248 247 249 252 250 251 253 258 262 265 270 275 280 283 286
273 254 254 252 251 257 257 256 256 264 269 269 267 267 270 272 271 270 269 266 263 261 261 258 253 253 249 248 248 248 246 246 246 245 247 248 248 250 249 250 253 256 259 264 269 275 279 282 285
286 257 258 258 258 264 263 267 267 265 265 267 265 269 274 275 275 277 278 271 267 266 263 259 256 253 251 249 247 247 245 243 244 245 246 248 250 250 247 248 251 255 258 262 268 273 277 280 283
298 279 254 248 251 244 269 272 269 270 266 272 273 276 277 276 275 277 277 277 273 269 267 263 258 254 251 251 249 249 246 242 243 243 244 245 248 249 247 247 250 253 257 262 267 273 276 279 282
322 282 272 250 257 255 255 280 295 283 286 286 283 286 287 285 282 282 283 281 279 275 270 264 259 257 254 251 251 250 249 247 242 243 244 244 246 246 246 247 249 252 257 261 266 271 274 277 279
103 253 278 245 247 266 262 267 307 309 303 295 297 302 299 299 294 289 288 287 286 281 276 269 263 259 256 253 251 250 249 246 248 245 244 243 244 247 247 247 249 252 256 260 264 268 272 275 277